Back to catalog

TAURUS R/B

AlivePO
NORAD 25490·ROCKET BODY·🇺🇸 United States

Launched Oct 3, 1998 from Vandenberg Space Force Base

Loading…

Next Passes (next 24 hours)

TLE

FreshSource: Space-Track

Epoch: Sep 14, 2026, 12:55 UTC

1 25490U 98055B   26257.53829148  .00000387  00000-0  57867-4 0  9994
2 25490  85.0723 190.1313 0012762 293.4151  66.5721 14.71784580498090

Track TAURUS R/B in real time with AllMySat

Download on the App Store